(°F)
48°
48°
48°
49°
49°
51°
52°
(°F)
47°
47°
47°
47°
48°
49°
51°
ESE
ESE
ESE
ESE
ESE
ESE
ESE
(mph)
1-5
1-5
2-5
2-6
3-6
2-7
2-7
(in)
0
0
0
0
0
0
0
(%)
0
0
1
1
1
1
1

Sun elevation

/ -44.9°
sun-icon
UV 3
07:52
18:49
Waning gibbous moon (201°)
19:52
09:27

METAR for Ioannina (LGIO)

Time Conditions Temperature/
Dewpoint
Wind Visibility Weather Clouds Pressure Change Raw
48.2°F / 46.4°F variable 0kt - 1022 - LGIO 220020Z AUTO 00000KT //// // ////// 09/08 Q1022 RE//
51.8°F / 50°F variable 2kt - 1022 - LGIO 212350Z AUTO VRB02KT //// // ////// 11/10 Q1022 RE//
50°F / 50°F variable 1kt - 1022 - LGIO 212320Z AUTO VRB01KT //// // ////// 10/10 Q1022 RE//
48.2°F / 46.4°F variable 1kt - 1022 - LGIO 212250Z AUTO VRB01KT //// // ////// 09/08 Q1022 RE//
50°F / 50°F variable 0kt - 1022 - LGIO 212220Z AUTO 00000KT //// // ////// 10/10 Q1022 RE//
50°F / 50°F variable 1kt - 1022 - LGIO 212150Z AUTO VRB01KT //// // ////// 10/10 Q1022 RE//
51.8°F / 50°F variable 0kt - 1022 - LGIO 212120Z AUTO 00000KT //// // ////// 11/10 Q1022 RE//
53.6°F / 51.8°F variable 0kt - 1022 - LGIO 212050Z AUTO 00000KT //// // ////// 12/11 Q1022 RE//
53.6°F / 51.8°F variable 1kt - 1022 - LGIO 212020Z AUTO VRB01KT //// // ////// 12/11 Q1022 RE//
55.4°F / 51.8°F variable 1kt - 1022 - LGIO 211950Z AUTO VRB01KT //// // ////// 13/11 Q1022 RE//
57.2°F / 51.8°F variable 2kt - 1022 - LGIO 211920Z AUTO VRB02KT //// // ////// 14/11 Q1022 RE//
VFR 57.2°F / 53.6°F variable 0kt >10km - Scattered Clouds 2500ft
Overcast 7000ft
1022 - LGIO 211850Z 00000KT 9999 SCT025 OVC070 14/12 Q1022
VFR 57.2°F / 53.6°F variable 0kt >10km Light Rain 1.00mm precipitation Vertical Visibility of 0ft.
Overcast 7000ft
1022 - LGIO 211820Z 00000KT 9999 -RA SCT025 OVC070 14/12 Q1022
VFR 59°F / 51.8°F variable 0kt >10km - Scattered Clouds 2500ft
Overcast 7000ft
1022 - LGIO 211750Z 00000KT 9999 SCT025 OVC070 15/11 Q1022
VFR 59°F / 51.8°F variable 0kt >10km - Scattered Clouds 2500ft
Overcast 7000ft
1022 - LGIO 211720Z 00000KT 9999 SCT025 OVC070 15/11 Q1022
VFR 59°F / 51.8°F variable 0kt >10km - Scattered Clouds 2500ft
Overcast 7000ft
1022 - LGIO 211650Z 00000KT 9999 SCT025 OVC070 15/11 Q1022
VFR 59°F / 51.8°F variable 0kt >10km - Scattered Clouds 2500ft
Overcast 7000ft
1022 - LGIO 211620Z 00000KT 9999 SCT025 OVC070 15/11 Q1022
VFR 59°F / 51.8°F variable 0kt >10km - Scattered Clouds 2500ft
Overcast 7000ft
1022 - LGIO 211550Z 00000KT 9999 SCT025 OVC070 15/11 Q1022
VFR 59°F / 51.8°F variable 0kt >10km - Scattered Clouds 2500ft
Overcast 7000ft
1022 - LGIO 211520Z 00000KT 9999 SCT025 OVC070 15/11 Q1022
VFR 60.8°F / 51.8°F 340º 4kt >10km - Few Clouds 2500ft
Overcast 7000ft
1022 - LGIO 211450Z 34004KT 9999 FEW025 OVC070 16/11 Q1022
60.8°F / 50°F 300º 4kt - 1022 - LGIO 211420Z AUTO 30004KT //// // ////// 16/10 Q1022 RE//
62.6°F / 50°F 280º variable 260º to 320º 4kt - 1022 - LGIO 211350Z AUTO 28004KT 260V320 //// // ////// 17/10 Q1022 RE//
62.6°F / 50°F 290º 4kt - 1023 - LGIO 211320Z AUTO 29004KT //// // ////// 17/10 Q1023 RE//
64.4°F / 48.2°F variable 3kt - 1023 - LGIO 211250Z AUTO VRB03KT //// // ////// 18/09 Q1023 RE//

48.2°F / 46.4°F

[More]
Wind variable 0kt
Visibility
Weather -
Clouds
Pressure 1022
Change -
Raw LGIO 220020Z AUTO 00000KT //// // ////// 09/08 Q1022 RE//

51.8°F / 50°F

[More]
Wind variable 2kt
Visibility
Weather -
Clouds
Pressure 1022
Change -
Raw LGIO 212350Z AUTO VRB02KT //// // ////// 11/10 Q1022 RE//

50°F / 50°F

[More]
Wind variable 1kt
Visibility
Weather -
Clouds
Pressure 1022
Change -
Raw LGIO 212320Z AUTO VRB01KT //// // ////// 10/10 Q1022 RE//

48.2°F / 46.4°F

[More]
Wind variable 1kt
Visibility
Weather -
Clouds
Pressure 1022
Change -
Raw LGIO 212250Z AUTO VRB01KT //// // ////// 09/08 Q1022 RE//

50°F / 50°F

[More]
Wind variable 0kt
Visibility
Weather -
Clouds
Pressure 1022
Change -
Raw LGIO 212220Z AUTO 00000KT //// // ////// 10/10 Q1022 RE//

50°F / 50°F

[More]
Wind variable 1kt
Visibility
Weather -
Clouds
Pressure 1022
Change -
Raw LGIO 212150Z AUTO VRB01KT //// // ////// 10/10 Q1022 RE//

51.8°F / 50°F

[More]
Wind variable 0kt
Visibility
Weather -
Clouds
Pressure 1022
Change -
Raw LGIO 212120Z AUTO 00000KT //// // ////// 11/10 Q1022 RE//

53.6°F / 51.8°F

[More]
Wind variable 0kt
Visibility
Weather -
Clouds
Pressure 1022
Change -
Raw LGIO 212050Z AUTO 00000KT //// // ////// 12/11 Q1022 RE//

53.6°F / 51.8°F

[More]
Wind variable 1kt
Visibility
Weather -
Clouds
Pressure 1022
Change -
Raw LGIO 212020Z AUTO VRB01KT //// // ////// 12/11 Q1022 RE//

55.4°F / 51.8°F

[More]
Wind variable 1kt
Visibility
Weather -
Clouds
Pressure 1022
Change -
Raw LGIO 211950Z AUTO VRB01KT //// // ////// 13/11 Q1022 RE//

57.2°F / 51.8°F

[More]
Wind variable 2kt
Visibility
Weather -
Clouds
Pressure 1022
Change -
Raw LGIO 211920Z AUTO VRB02KT //// // ////// 14/11 Q1022 RE//

VFR

57.2°F / 53.6°F

[More]
Wind variable 0kt
Visibility >10km
Weather -
Clouds Scattered Clouds 2500ft
Overcast 7000ft
Pressure 1022
Change -
Raw LGIO 211850Z 00000KT 9999 SCT025 OVC070 14/12 Q1022

VFR

57.2°F / 53.6°F

[More]
Wind variable 0kt
Visibility >10km
Weather Light Rain 1.00mm precipitation
Clouds Vertical Visibility of 0ft.
Overcast 7000ft
Pressure 1022
Change -
Raw LGIO 211820Z 00000KT 9999 -RA SCT025 OVC070 14/12 Q1022

VFR

59°F / 51.8°F

[More]
Wind variable 0kt
Visibility >10km
Weather -
Clouds Scattered Clouds 2500ft
Overcast 7000ft
Pressure 1022
Change -
Raw LGIO 211750Z 00000KT 9999 SCT025 OVC070 15/11 Q1022

VFR

59°F / 51.8°F

[More]
Wind variable 0kt
Visibility >10km
Weather -
Clouds Scattered Clouds 2500ft
Overcast 7000ft
Pressure 1022
Change -
Raw LGIO 211720Z 00000KT 9999 SCT025 OVC070 15/11 Q1022

VFR

59°F / 51.8°F

[More]
Wind variable 0kt
Visibility >10km
Weather -
Clouds Scattered Clouds 2500ft
Overcast 7000ft
Pressure 1022
Change -
Raw LGIO 211650Z 00000KT 9999 SCT025 OVC070 15/11 Q1022

VFR

59°F / 51.8°F

[More]
Wind variable 0kt
Visibility >10km
Weather -
Clouds Scattered Clouds 2500ft
Overcast 7000ft
Pressure 1022
Change -
Raw LGIO 211620Z 00000KT 9999 SCT025 OVC070 15/11 Q1022

VFR

59°F / 51.8°F

[More]
Wind variable 0kt
Visibility >10km
Weather -
Clouds Scattered Clouds 2500ft
Overcast 7000ft
Pressure 1022
Change -
Raw LGIO 211550Z 00000KT 9999 SCT025 OVC070 15/11 Q1022

VFR

59°F / 51.8°F

[More]
Wind variable 0kt
Visibility >10km
Weather -
Clouds Scattered Clouds 2500ft
Overcast 7000ft
Pressure 1022
Change -
Raw LGIO 211520Z 00000KT 9999 SCT025 OVC070 15/11 Q1022

VFR

60.8°F / 51.8°F

[More]
Wind 340º 4kt
Visibility >10km
Weather -
Clouds Few Clouds 2500ft
Overcast 7000ft
Pressure 1022
Change -
Raw LGIO 211450Z 34004KT 9999 FEW025 OVC070 16/11 Q1022

60.8°F / 50°F

[More]
Wind 300º 4kt
Visibility
Weather -
Clouds
Pressure 1022
Change -
Raw LGIO 211420Z AUTO 30004KT //// // ////// 16/10 Q1022 RE//

62.6°F / 50°F

[More]
Wind 280º variable 260º to 320º 4kt
Visibility
Weather -
Clouds
Pressure 1022
Change -
Raw LGIO 211350Z AUTO 28004KT 260V320 //// // ////// 17/10 Q1022 RE//

62.6°F / 50°F

[More]
Wind 290º 4kt
Visibility
Weather -
Clouds
Pressure 1023
Change -
Raw LGIO 211320Z AUTO 29004KT //// // ////// 17/10 Q1023 RE//

64.4°F / 48.2°F

[More]
Wind variable 3kt
Visibility
Weather -
Clouds
Pressure 1023
Change -
Raw LGIO 211250Z AUTO VRB03KT //// // ////// 18/09 Q1023 RE//

TAF for Ioannina (LGIO)

From till


From till Wind variable 3kt. Visibility 10km or more. Scattered Clouds 2000ft. Scattered Clouds 8000ft.
With 40% probability, Temporarly from till Visibility 3000m. Mist . Scattered Clouds 400ft. Broken Clouds 2000ft.

Raw: TAF LGIO 212300Z 2200/2209 VRB03KT 9999 SCT020 SCT080 PROB40 TEMPO 2200/2209 3000 BR SCT004 BKN020

Current satellite and rain images for Ioannina, Greece

The location marker is placed on Ioannina. [More]

The real-time satellite image combines visible light during daytime with infrared radiation during nighttime. At night, the image is not dark as infrared radiation can detect temperature differences. Unfortunately, low clouds and fog are difficult to distinguish from ground temperatures and thus can be almost invisible during the night. Meteosat satellite images for Europe are updated in real-time every 5 minutes. GOES-16/GOES-17 (North & South America) and Himawari (Asia) images update every 10 minutes.

Precipitation is estimated from radar and satellites. At night precipitation estimates from satellites are less accurate than during daytime. Orange crosses mark places where lightning was detected (over Europe).

Copyright 2021 EUMETSAT / meteoblue. Lightning data provided by nowcast.

Radar and precipitation nowcast for Ioannina

Drizzle
Light
Moderate
Heavy
Very Heavy
Hail

The location marker is placed on Ioannina. This animation shows the precipitation radar for the last hour, as well as a 1h forecast. Drizzle or light snow fall might be invisible for the radar. Precipitation intensity is colour coded, ranging from light blue to orange.